[[{"header":{"parameterUnit":"m.s-1","parameterCategory":1,"la1":30.2991,"la2":30.254,"lo1":-89.0895,"lo2":-89.0444,"dy":0.0017,"dx":0.0017,"nx":28,"ny":28,"refTime":"2025-05-25T03:00:00:Z","depth":0,"parameterNumber":2,"parameterNumberName":"U-component_of_WINDS"},"data":[0,0,0,0,0,0,0,0,0,0,0,0,0,0,0,0,0,0,0,0,0,0,0,0,0,0,0,0,0,0,0,0,0,0,0,0,0,0,0,0,0,0,0,0,0,0,0,0,0,0,0,0,0,0,0,0,0,0,1.1832,1.1832,0,1.1772,1.1771,1.177,1.1701,1.17,1.1699,1.1698,1.1634,1.1633,1.1633,0,0,0,0,0,0,0,0,0,0,0,0,0,1.1887,1.1886,1.1832,1.1831,1.1831,1.1772,1.1771,1.177,1.1701,1.17,1.1698,1.1697,1.1634,1.1634,1.1633,0,0,0,0,0,0,0,0,0,0,0,0,0,1.1848,1.1886,1.1832,1.1789,1.1785,1.1772,1.1771,1.177,1.1701,1.17,1.1698,1.1697,1.1635,1.1634,1.1633,1.1657,0,0,1.1629,1.1629,0,0,0,0,0,0,0,0,1.1851,1.1846,1.1796,1.1792,1.1787,1.1742,1.1767,1.1732,1.1702,1.1733,1.1698,1.1696,1.1671,1.1667,1.1659,1.1654,1.1651,1.1629,1.1628,1.1628,1.1628,0,0,0,0,0,0,0,1.1853,1.1849,1.1808,1.1796,1.179,1.1772,1.1765,1.176,1.1711,1.173,1.1725,1.1719,1.1668,1.166,1.1657,1.165,1.1629,1.1628,1.1628,1.1627,1.1661,1.1663,0,0,0,0,0,0,1.1863,1.1851,1.181,1.1806,1.1816,1.1773,1.1765,1.1758,1.1711,1.1703,1.172,1.1716,1.1663,1.1658,1.1655,1.1679,1.1628,1.1627,1.1626,1.166,1.1662,1.1663,0,0,0,0,0,0,1.1864,1.186,1.1813,1.1827,1.182,1.1773,1.1767,1.1758,1.1749,1.1704,1.1695,1.1721,1.1661,1.1656,1.1657,1.1676,1.1627,1.1626,1.1658,1.166,1.1663,1.1729,0,0,0,0,0,0,1.1866,1.1861,1.187,1.1828,1.182,1.1816,1.1768,1.1758,1.1748,1.1742,1.1702,1.1694,1.166,1.1659,1.1656,1.1674,1.1625,1.1656,1.1659,1.1662,1.1725,1.1734,1.1741,0,0,0,0,0,1.1868,1.1891,1.1871,1.1866,1.183,1.1818,1.1813,1.1773,1.175,1.1758,1.1729,1.1695,1.1675,1.1659,1.1655,1.1673,1.1655,1.1658,1.1662,1.1722,1.1732,1.1741,0,0,0,0,0,0,1.1935,1.1884,1.1861,1.1871,1.185,1.1806,1.1815,1.1786,1.177,1.1764,1.1716,1.1708,1.1714,1.1694,1.1678,1.1694,1.166,1.1663,1.1707,1.1716,1.1724,1.1728,1.1624,0,0,0,0,0,1.1951,1.1946,1.1902,1.1915,1.1905,1.1863,1.1856,1.1827,1.1802,1.1793,1.1763,1.174,1.1728,1.1721,1.1708,1.1722,1.1712,1.1733,1.1741,1.1747,1.175,1.1755,1.1763,1.1675,1.1675,1.1675,0,0,1.1984,1.1956,1.1955,1.1928,1.1907,1.1902,1.1855,1.1852,1.1847,1.1792,1.179,1.1769,1.1739,1.1747,1.1749,1.173,1.1772,1.1752,1.1757,1.1756,1.1759,1.1768,1.1775,1.1677,1.1677,1.1676,0,0,1.2041,1.202,1.2028,1.2009,1.1979,1.195,1.1952,1.1913,1.1897,1.1895,1.1853,1.1847,1.1828,1.1808,1.1796,1.1846,1.1814,1.1844,1.1884,1.189,1.1897,1.1902,1.1919,1.1926,1.1847,1.1847,1.1847,0,1.2085,1.2077,1.2036,1.2035,1.2023,1.1974,1.1981,1.1965,1.1932,1.1925,1.1905,1.188,1.1857,1.1858,1.1871,1.1863,1.1863,1.1847,1.1899,1.1905,1.1909,1.1925,1.1931,1.185,1.185,1.185,1.1849,0,1.2132,1.2127,1.2137,1.2107,1.2097,1.21,1.2059,1.2054,1.2027,1.2001,1.1999,1.197,1.1949,1.1948,1.1921,1.1946,1.1935,1.1908,1.1872,1.1922,1.1936,1.1941,1.1856,1.1854,1.1853,1.1852,0,0,1.2228,1.2176,1.218,1.2166,1.2129,1.2124,1.2125,1.2106,1.2102,1.2081,1.208,1.2065,1.204,1.2026,1.1997,1.2002,1.2043,1.1974,1.1972,1.1987,1.2066,1.2086,1.2094,1.2022,1.2023,1.2024,1.2068,0,1.2277,1.2276,1.224,1.2249,1.2243,1.2196,1.2197,1.2175,1.215,1.2141,1.2114,1.2104,1.2072,1.2063,1.2066,1.2037,1.2058,1.2034,1.2019,1.2019,1.2026,1.2101,1.2122,1.2165,1.2074,1.2075,1.2075,0,1.2334,1.2317,1.2326,1.2289,1.2285,1.2287,1.2266,1.2258,1.2232,1.2213,1.2199,1.2166,1.2163,1.2131,1.2127,1.2111,1.2103,1.2088,1.2089,1.2085,1.2049,1.2097,1.2178,1.2185,1.2083,1.2083,1.2082,0,1.2401,1.2381,1.2383,1.2373,1.233,1.2332,1.2314,1.2287,1.2277,1.2259,1.2252,1.2234,1.2224,1.221,1.2173,1.2153,1.2173,1.2137,1.2156,1.2157,1.2161,1.2161,1.2241,1.2159,1.2159,1.2159,1.2159,0,1.2459,1.2466,1.2413,1.2414,1.242,1.2379,1.2386,1.2363,1.2339,1.2335,1.2294,1.229,1.2242,1.2234,1.2205,1.2205,1.2201,1.2185,1.2177,1.2188,1.219,1.2181,1.2176,1.216,1.216,1.216,1.2159,0,1.2534,1.25,1.2499,1.2459,1.2449,1.2456,1.2421,1.242,1.2394,1.2389,1.2385,1.2344,1.2331,1.2293,1.2271,1.2252,1.226,1.2246,1.2269,1.2263,1.2284,1.2282,1.2359,1.2367,1.2283,1.2283,1.2284,0,1.2573,1.2577,1.2538,1.2532,1.2517,1.2508,1.2499,1.2458,1.245,1.242,1.2423,1.2407,1.2392,1.2374,1.2341,1.2324,1.2308,1.2337,1.2305,1.2316,1.2307,1.2306,1.2306,1.2343,1.2344,1.2345,1.2346,0,1.2644,1.2626,1.2614,1.2597,1.2587,1.257,1.2552,1.2549,1.2504,1.2496,1.2483,1.2472,1.245,1.2434,1.2412,1.2393,1.2361,1.2356,1.2359,1.237,1.2382,1.2374,1.2286,1.2354,1.2353,1.2353,1.2352,1.2352,1.27,1.2702,1.2675,1.2663,1.2645,1.2628,1.2626,1.2599,1.2588,1.2567,1.2544,1.2533,1.2506,1.2473,1.2457,1.2447,1.2431,1.2436,1.2436,1.2438,1.2443,1.2386,1.2443,1.2443,1.2443,1.2443,1.2442,0,1.2768,1.2748,1.2738,1.2714,1.2704,1.2677,1.2655,1.2649,1.264,1.2618,1.2605,1.259,1.2575,1.2542,1.2523,1.2522,1.2507,1.2519,1.2517,1.2513,1.2459,1.2458,1.2531,1.2531,1.2531,1.2531,1.2531,1.2531,1.2802,1.2802,1.2782,1.2773,1.2753,1.2743,1.2733,1.2718,1.27,1.2685,1.2673,1.2652,1.2625,1.2605,1.259,1.258,1.2574,1.259,1.2576,1.2526,1.2517,1.2509,1.2507,1.259,1.259,1.2631,1.2631,1.2631]},{"header":{"parameterUnit":"m.s-1","parameterCategory":1,"la1":30.2991,"la2":30.254,"lo1":-89.0895,"lo2":-89.0444,"dy":0.0017,"dx":0.0017,"nx":28,"ny":28,"refTime":"2025-05-25T03:00:00:Z","depth":0,"parameterNumber":3,"parameterNumberName":"V-component_of_WINDS"},"data":[0,0,0,0,0,0,0,0,0,0,0,0,0,0,0,0,0,0,0,0,0,0,0,0,0,0,0,0,0,0,0,0,0,0,0,0,0,0,0,0,0,0,0,0,0,0,0,0,0,0,0,0,0,0,0,0,0,0,3.8797,3.8796,0,3.8661,3.866,3.8658,3.8595,3.8595,3.8595,3.8595,3.8449,3.8445,3.8441,0,0,0,0,0,0,0,0,0,0,0,0,0,3.8995,3.8992,3.8797,3.8796,3.8794,3.8662,3.866,3.8658,3.8595,3.8595,3.8595,3.8595,3.845,3.8445,3.844,0,0,0,0,0,0,0,0,0,0,0,0,0,3.8889,3.8991,3.8798,3.8747,3.8741,3.8662,3.866,3.8657,3.8595,3.8595,3.8595,3.8595,3.8452,3.8446,3.844,3.8399,0,0,3.8421,3.8419,0,0,0,0,0,0,0,0,3.8895,3.8882,3.8756,3.875,3.8743,3.8645,3.8676,3.8571,3.8595,3.865,3.8595,3.8595,3.8513,3.8502,3.8476,3.8393,3.8386,3.8421,3.8417,3.8415,3.8413,0,0,0,0,0,0,0,3.8903,3.8887,3.8743,3.8754,3.8746,3.8728,3.8713,3.8656,3.8582,3.8645,3.864,3.8625,3.851,3.8482,3.8472,3.8384,3.8421,3.8416,3.8412,3.841,3.8261,3.8261,0,0,0,0,0,0,3.8919,3.8894,3.8748,3.8739,3.8822,3.8725,3.8708,3.8676,3.8583,3.8569,3.8625,3.8623,3.8492,3.8479,3.8467,3.8414,3.8415,3.8409,3.8406,3.8261,3.8261,3.8261,0,0,0,0,0,0,3.8924,3.8907,3.8753,3.8815,3.8794,3.8721,3.8686,3.8674,3.8646,3.8568,3.8554,3.8611,3.8492,3.8475,3.8417,3.8408,3.8406,3.8401,3.8262,3.8261,3.8261,3.8308,0,0,0,0,0,0,3.893,3.8909,3.8894,3.8816,3.8791,3.8708,3.8686,3.8671,3.8637,3.8632,3.8551,3.8537,3.8491,3.8427,3.8411,3.84,3.8396,3.8262,3.8262,3.8261,3.8306,3.8309,3.8311,0,0,0,0,0,3.8937,3.8911,3.8894,3.8876,3.8772,3.8707,3.8693,3.8643,3.8636,3.862,3.857,3.854,3.8412,3.8421,3.8404,3.839,3.8263,3.8262,3.8261,3.8305,3.8308,3.8311,0,0,0,0,0,0,3.8987,3.8899,3.888,3.8828,3.8776,3.8697,3.8674,3.8647,3.8594,3.8591,3.8529,3.8511,3.8458,3.8418,3.843,3.8346,3.8334,3.833,3.8374,3.8376,3.8378,3.8388,3.8391,0,0,0,0,0,3.8993,3.895,3.8875,3.8836,3.8811,3.8748,3.8718,3.8684,3.8626,3.8603,3.8549,3.8492,3.8439,3.8406,3.8353,3.8301,3.8282,3.8283,3.8285,3.8287,3.8283,3.8253,3.8253,3.8258,3.8258,3.8258,0,0,3.9002,3.8949,3.8925,3.8845,3.88,3.8756,3.8729,3.8683,3.8648,3.8595,3.8538,3.8496,3.8429,3.8375,3.8347,3.8339,3.8278,3.8286,3.8288,3.8283,3.8253,3.8252,3.8252,3.8258,3.8258,3.8258,0,0,3.8997,3.8953,3.8917,3.8874,3.8809,3.8767,3.8758,3.8684,3.8655,3.8597,3.8557,3.8514,3.8424,3.8378,3.8343,3.8324,3.8294,3.8308,3.8318,3.829,3.8289,3.8289,3.8282,3.828,3.8305,3.8305,3.8305,0,3.9016,3.895,3.89,3.8857,3.8822,3.8776,3.8737,3.8697,3.8617,3.8593,3.8586,3.8474,3.8425,3.8359,3.8355,3.8328,3.8315,3.8316,3.8294,3.8293,3.8291,3.8284,3.8281,3.8307,3.8307,3.8307,3.8307,0,3.8977,3.8932,3.8909,3.8837,3.88,3.8759,3.8701,3.867,3.8639,3.8598,3.854,3.848,3.8415,3.8397,3.8366,3.8327,3.8324,3.8307,3.8293,3.8294,3.8286,3.8282,3.8311,3.831,3.8309,3.8309,0,0,3.8997,3.89,3.8893,3.886,3.8785,3.8748,3.8705,3.8644,3.8618,3.8564,3.8526,3.8452,3.8436,3.8397,3.836,3.8335,3.8324,3.832,3.8317,3.8323,3.8277,3.8291,3.8288,3.8304,3.8304,3.8303,3.8283,0,3.8982,3.8905,3.886,3.8801,3.8758,3.8714,3.8677,3.8626,3.8587,3.8543,3.8498,3.8448,3.843,3.8406,3.838,3.8331,3.8314,3.8332,3.8266,3.8265,3.8284,3.8284,3.8297,3.8281,3.8279,3.8279,3.8278,0,3.8952,3.8904,3.8842,3.8774,3.8754,3.8721,3.8662,3.8622,3.8563,3.8536,3.8494,3.8458,3.8409,3.8402,3.8333,3.8347,3.8317,3.829,3.8288,3.8278,3.8271,3.8274,3.8275,3.8273,3.8273,3.8273,3.8274,0,3.8974,3.8892,3.8844,3.8817,3.8737,3.8715,3.868,3.8622,3.8589,3.8537,3.8514,3.8457,3.8424,3.838,3.8329,3.8328,3.8266,3.8254,3.8241,3.8242,3.8228,3.823,3.8224,3.8211,3.8211,3.8212,3.8212,0,3.896,3.8923,3.8853,3.8824,3.8781,3.873,3.8689,3.865,3.8599,3.856,3.8518,3.8482,3.8417,3.8373,3.8332,3.8282,3.8268,3.8244,3.8233,3.8247,3.825,3.8226,3.8225,3.8211,3.8211,3.8211,3.8211,0,3.8975,3.8927,3.8872,3.8802,3.8784,3.8756,3.8694,3.8663,3.8623,3.8574,3.856,3.8496,3.8441,3.8387,3.8313,3.8286,3.8236,3.8222,3.8257,3.8251,3.8241,3.8243,3.8219,3.8213,3.8206,3.8206,3.8206,0,3.897,3.8941,3.8869,3.8842,3.8809,3.8764,3.8731,3.8679,3.8646,3.8579,3.8556,3.8499,3.8451,3.8366,3.8312,3.8255,3.8239,3.8235,3.823,3.8246,3.8239,3.8241,3.8237,3.8236,3.8237,3.8237,3.8237,0,3.8964,3.8943,3.8898,3.8845,3.8808,3.8763,3.8716,3.8695,3.8634,3.8599,3.8545,3.8508,3.8434,3.8378,3.8316,3.8277,3.8247,3.824,3.8234,3.8247,3.8268,3.8256,3.8261,3.824,3.824,3.8239,3.8239,3.8239,3.8968,3.8941,3.8887,3.8839,3.8799,3.8757,3.8726,3.8683,3.8638,3.8575,3.8547,3.8493,3.8435,3.8349,3.8312,3.8267,3.8259,3.825,3.8248,3.8246,3.825,3.8277,3.8256,3.8256,3.8255,3.8255,3.8255,0,3.8961,3.8925,3.8881,3.8819,3.8781,3.8759,3.8707,3.8675,3.8629,3.858,3.8535,3.8472,3.8419,3.8361,3.8304,3.8279,3.8264,3.8266,3.8266,3.8258,3.826,3.8271,3.8279,3.8279,3.8279,3.8279,3.8279,3.8279,3.8952,3.8906,3.8878,3.8811,3.8774,3.8723,3.8695,3.8656,3.8616,3.855,3.8506,3.847,3.8417,3.8356,3.8306,3.829,3.827,3.8276,3.8257,3.826,3.8258,3.8256,3.8266,3.8273,3.8273,3.8258,3.8258,3.8258]}]]